Weather History for Sisseton, SD

Change the Weather History Date:

Wednesday, October 19, 2011

  Actual Average Record
Temperature  
Mean Temperature 36 °F 45 °F  
Max Temperature 47 °F 56 °F 88 °F (2003)
Min Temperature 25 °F 35 °F 12 °F (1972)
Degree Days  
Heating Degree Days 29 20  
Month to date heating degree days 169 307  
Since 1 July heating degree days 385 552  
Cooling Degree Days 0 0  
Month to date cooling degree days 19 0  
Year to date cooling degree days 642 523  
Moisture  
Dew Point 25 °F    
Average Humidity 69    
Maximum Humidity 88    
Minimum Humidity 49    
Precipitation  
Precipitation 0.00 in 0.06 in 1.34 in (1984)
Month to date precipitation 0.99 1.51  
Year to date precipitation 20.92 20.79  
Snow  
Snow 0.00 in - - ()
Month to date snowfall 0.0  
Since 1 July snowfall 0.0  
Snow Depth 0.00 in    
Sea Level Pressure  
Sea Level Pressure 30.22 in    
Wind  
Wind Speed 9 mph (North)    
Max Wind Speed 17 mph    
Max Gust Speed 21 mph    
T = Trace of Precipitation, MM = Missing Value Source: NWS Daily Summary

Daily Weather History Graph

Daily Weather History Graph

Search for Another Location

Airport:

Trip Planner

Search our weather history database for the weather conditions in past years. The results will help you decide how hot, cold, wet, or windy it might be!

Date:

Astronomy

Oct. 19, 2011 Rise Set
Actual Time 7:49 AM CDT 6:35 PM CDT
Civil Twilight 7:19 AM CDT 7:05 PM CDT
Nautical Twilight 6:44 AM CDT 7:40 PM CDT
Astronomical Twilight 6:10 AM CDT 8:14 PM CDT
Moon No Moon Rise 2:29 PM CDT (10/19)
Length of Visible Light 11h 46m
Length of Day
10h 46m
Waning Gibbous, 54% of the Moon is Illuminated
Oct 19
Waning Gibbous
Oct 19
Last Quarter
Oct 26
New
Nov 2
First Quarter
Nov 10
Full

Hourly Weather History & Observations

Time (CDT) Temp. Windchill Dew Point Humidity Pressure Visibility Wind Dir Wind Speed Gust Speed Precip Events Conditions
12:56 AM 27.0 °F 18.7 °F 19.9 °F 75% 30.20 in - NNW 8.1 mph - N/A   Unknown
1:56 AM 28.9 °F 19.2 °F 21.0 °F 72% 30.20 in - NNW 11.5 mph - N/A   Unknown
2:56 AM 28.0 °F 19.3 °F 19.9 °F 72% 30.21 in - North 9.2 mph - N/A   Unknown
3:56 AM 25.0 °F 16.3 °F 19.9 °F 81% 30.22 in - NNW 8.1 mph - N/A   Unknown
4:56 AM 25.0 °F 16.3 °F 21.0 °F 85% 30.23 in - NNW 8.1 mph - N/A   Unknown
5:56 AM 28.0 °F 20.0 °F 23.0 °F 81% 30.23 in - North 8.1 mph - N/A   Unknown
6:56 AM 30.0 °F 21.1 °F 25.0 °F 82% 30.24 in - North 10.4 mph - N/A   Unknown
7:56 AM 30.9 °F 22.2 °F 26.1 °F 82% 30.26 in - North 10.4 mph - N/A   Unknown
8:56 AM 33.1 °F 24.9 °F 27.0 °F 78% 30.27 in - North 10.4 mph - N/A   Unknown
9:56 AM 35.1 °F 26.9 °F 27.0 °F 72% 30.27 in - North 11.5 mph - N/A   Unknown
10:56 AM 37.9 °F 30.5 °F 28.0 °F 68% 30.27 in - North 11.5 mph - N/A   Unknown
11:56 AM 41.0 °F 34.3 °F 26.1 °F 55% 30.26 in - North 11.5 mph - N/A   Unknown
12:56 PM 41.0 °F 34.7 °F 27.0 °F 57% 30.26 in - NNE 10.4 mph - N/A   Unknown
1:56 PM 43.0 °F 37.7 °F 27.0 °F 53% 30.23 in - NNE 9.2 mph - N/A   Unknown
2:56 PM 45.0 °F 39.3 °F 27.0 °F 49% 30.20 in - North 11.5 mph 18.4 mph N/A   Unknown
3:56 PM 45.0 °F 39.3 °F 27.0 °F 49% 30.19 in - North 11.5 mph - N/A   Unknown
4:56 PM 44.1 °F 37.4 °F 28.0 °F 53% 30.19 in - NNE 13.8 mph - N/A   Unknown
5:56 PM 44.1 °F 38.1 °F 28.0 °F 53% 30.18 in - North 11.5 mph - N/A   Unknown
6:56 PM 37.0 °F 32.4 °F 28.0 °F 70% 30.19 in - NNE 5.8 mph - N/A   Unknown
7:56 PM 35.1 °F 31.0 °F 27.0 °F 72% 30.20 in - NNE 4.6 mph - N/A   Unknown
8:56 PM 30.0 °F 25.2 °F 25.0 °F 82% 30.19 in - NNW 4.6 mph - N/A   Unknown
9:56 PM 28.9 °F 25.2 °F 25.0 °F 85% 30.19 in - NNW 3.5 mph - N/A   Unknown
10:56 PM 27.0 °F 21.6 °F 23.0 °F 85% 30.19 in - NNW 4.6 mph - N/A   Unknown
11:56 PM 27.0 °F 23.0 °F 23.0 °F 85% 30.17 in - NNW 3.5 mph - N/A   Unknown